SCO25WD EGKK-EGPH

Flight info

Callsign SCO25WD
Flight time 1h 0m
Altitude 36000
Route LAM L10 BPK UN601 RIBEL DCT INPIP
Aircraft A20N/M-SDE2E3FGHIRWXY/LB1

Departure

Time 2026-04-23 03:02
Airport London Gatwick Airport (EGKK)

Arrival

Time 2026-04-23 04:03
Airport Edinburgh Airport (EGPH)
Time Latitude Longitude Altitude Speed Heading
2026-04-23 02:40 51.15494 -0.16897 205 ft 0 kts 349°
2026-04-23 02:51 51.15457 -0.16886 210 ft 3 kts 349°
2026-04-23 02:51 51.15444 -0.16881 214 ft 2 kts 349°
2026-04-23 02:51 51.15431 -0.16878 215 ft 1 kts 315°
2026-04-23 02:52 51.15429 -0.16876 212 ft 0 kts 298°
2026-04-23 02:54 51.15434 -0.16929 204 ft 17 kts 262°
2026-04-23 02:54 51.15403 -0.17106 214 ft 0 kts 251°
2026-04-23 02:54 51.15381 -0.17225 206 ft 18 kts 253°
2026-04-23 02:54 51.15302 -0.17402 212 ft 17 kts 247°
2026-04-23 02:55 51.15298 -0.17455 204 ft 9 kts 262°
2026-04-23 02:55 51.15270 -0.17627 208 ft 22 kts 257°
2026-04-23 02:55 51.15231 -0.17918 204 ft 31 kts 258°
2026-04-23 02:55 51.15182 -0.18303 208 ft 38 kts 259°
2026-04-23 02:56 51.15123 -0.18750 206 ft 44 kts 258°
2026-04-23 02:56 51.15053 -0.19252 209 ft 48 kts 257°
2026-04-23 02:56 51.14981 -0.19783 208 ft 51 kts 257°
2026-04-23 02:56 51.14905 -0.20345 206 ft 51 kts 256°
2026-04-23 02:57 51.14838 -0.20838 213 ft 43 kts 258°
2026-04-23 02:57 51.14762 -0.21295 204 ft 36 kts 257°
2026-04-23 02:57 51.14725 -0.21397 208 ft 1 kts 186°
2026-04-23 02:57 51.14677 -0.21371 206 ft 14 kts 151°
2026-04-23 02:58 51.14559 -0.21280 208 ft 24 kts 144°
2026-04-23 02:58 51.14533 -0.21034 204 ft 24 kts 82°
2026-04-23 02:58 51.14546 -0.20947 209 ft 11 kts 75°
2026-04-23 02:58 51.14553 -0.20887 211 ft 0 kts 81°
2026-04-23 02:59 51.14553 -0.20883 211 ft 0 kts 77°
2026-04-23 03:02 51.14664 -0.20088 211 ft 119 kts 77°
2026-04-23 03:02 51.14817 -0.19035 249 ft 165 kts 77°
2026-04-23 03:02 51.15061 -0.17226 1107 ft 177 kts 78°
2026-04-23 03:02 51.15347 -0.15119 1945 ft 207 kts 80°
2026-04-23 03:03 51.15671 -0.12789 2926 ft 223 kts 81°
2026-04-23 03:03 51.16000 -0.10428 4344 ft 212 kts 80°
2026-04-23 03:03 51.16325 -0.08137 5507 ft 221 kts 76°
2026-04-23 03:03 51.16997 -0.05715 5905 ft 257 kts 60°
2026-04-23 03:04 51.18103 -0.03404 5996 ft 264 kts 54°
2026-04-23 03:04 51.19248 -0.01118 5994 ft 264 kts 54°
2026-04-23 03:04 51.20390 0.01178 6015 ft 264 kts 55°
2026-04-23 03:04 51.21520 0.03484 6016 ft 264 kts 55°
2026-04-23 03:05 51.22645 0.05803 6018 ft 265 kts 55°
2026-04-23 03:05 51.23769 0.08132 6019 ft 265 kts 55°
2026-04-23 03:05 51.24750 0.10585 6019 ft 262 kts 68°
2026-04-23 03:05 51.25323 0.13330 6019 ft 259 kts 81°
2026-04-23 03:06 51.25634 0.16162 6017 ft 260 kts 82°
2026-04-23 03:06 51.25963 0.18997 6014 ft 260 kts 81°
2026-04-23 03:06 51.26301 0.21830 6020 ft 259 kts 81°
2026-04-23 03:06 51.26639 0.24658 6114 ft 260 kts 81°
2026-04-23 03:07 51.26976 0.27496 6105 ft 260 kts 81°
2026-04-23 03:07 51.27311 0.30331 6110 ft 260 kts 81°
2026-04-23 03:07 51.27793 0.33106 6121 ft 262 kts 65°
2026-04-23 03:07 51.28975 0.35338 6124 ft 269 kts 38°
2026-04-23 03:08 51.30711 0.36470 6115 ft 276 kts 11°
2026-04-23 03:08 51.32630 0.36210 6154 ft 281 kts 343°
2026-04-23 03:08 51.34460 0.35059 6411 ft 286 kts 338°
2026-04-23 03:08 51.36283 0.33784 6476 ft 285 kts 338°
2026-04-23 03:09 51.38103 0.32515 6419 ft 285 kts 338°
2026-04-23 03:09 51.39924 0.31281 6418 ft 284 kts 339°
2026-04-23 03:09 51.41751 0.30073 6420 ft 284 kts 339°
2026-04-23 03:09 51.43583 0.28878 6434 ft 284 kts 339°
2026-04-23 03:10 51.45416 0.27689 6701 ft 283 kts 339°
2026-04-23 03:10 51.47255 0.26497 7255 ft 285 kts 339°
2026-04-23 03:10 51.49096 0.25302 7985 ft 288 kts 339°
2026-04-23 03:10 51.50965 0.24086 8744 ft 290 kts 339°
2026-04-23 03:11 51.52847 0.22859 9523 ft 293 kts 339°
2026-04-23 03:11 51.54747 0.21620 10429 ft 296 kts 339°
2026-04-23 03:11 51.56671 0.20364 11260 ft 301 kts 339°
2026-04-23 03:11 51.58623 0.19088 12081 ft 305 kts 339°
2026-04-23 03:12 51.60604 0.17792 12917 ft 310 kts 339°
2026-04-23 03:12 51.62610 0.16476 13795 ft 314 kts 339°
2026-04-23 03:12 51.64492 0.14661 14617 ft 320 kts 320°
2026-04-23 03:12 51.65951 0.11940 15423 ft 323 kts 303°
2026-04-23 03:13 51.67173 0.08852 16251 ft 329 kts 303°
2026-04-23 03:13 51.68416 0.05720 17100 ft 334 kts 303°
2026-04-23 03:13 51.69681 0.02549 18023 ft 339 kts 303°
2026-04-23 03:13 51.70963 -0.00655 18896 ft 342 kts 303°
2026-04-23 03:14 51.72261 -0.03896 19694 ft 344 kts 304°
2026-04-23 03:14 51.73562 -0.07144 20512 ft 346 kts 305°
2026-04-23 03:14 51.75077 -0.10142 21348 ft 344 kts 317°
2026-04-23 03:14 51.76933 -0.12558 22202 ft 342 kts 328°
2026-04-23 03:15 51.78977 -0.14486 23090 ft 340 kts 331°
2026-04-23 03:15 51.81021 -0.16413 23989 ft 339 kts 331°
2026-04-23 03:15 51.83045 -0.18341 24697 ft 336 kts 331°
2026-04-23 03:15 51.85046 -0.20257 25486 ft 332 kts 331°
2026-04-23 03:16 51.87016 -0.22142 26288 ft 328 kts 331°
2026-04-23 03:16 51.88964 -0.24007 27115 ft 322 kts 331°
2026-04-23 03:16 51.92730 -0.27615 28856 ft 306 kts 332°
2026-04-23 03:17 51.94510 -0.29322 29742 ft 296 kts 332°
2026-04-23 03:17 51.96269 -0.31011 30643 ft 285 kts 332°
2026-04-23 03:17 51.97940 -0.32615 31198 ft 281 kts 332°
2026-04-23 03:17 51.99647 -0.34251 31585 ft 283 kts 332°
2026-04-23 03:18 52.01346 -0.35880 31895 ft 286 kts 332°
2026-04-23 03:18 52.03044 -0.37511 32211 ft 288 kts 332°
2026-04-23 03:18 52.04777 -0.39179 32518 ft 291 kts 332°
2026-04-23 03:18 52.06531 -0.40869 32814 ft 294 kts 331°
2026-04-23 03:19 52.08296 -0.42572 33124 ft 297 kts 331°
2026-04-23 03:19 52.10080 -0.44295 33420 ft 299 kts 331°
2026-04-23 03:19 52.11879 -0.46031 33710 ft 302 kts 331°
2026-04-23 03:19 52.13693 -0.47785 33994 ft 305 kts 331°
2026-04-23 03:20 52.15525 -0.49558 34257 ft 308 kts 331°
2026-04-23 03:20 52.17372 -0.51346 34508 ft 310 kts 331°
2026-04-23 03:20 52.19235 -0.53152 34746 ft 313 kts 331°
2026-04-23 03:20 52.21112 -0.54974 34971 ft 315 kts 331°
2026-04-23 03:21 52.23007 -0.56815 35179 ft 318 kts 331°
2026-04-23 03:21 52.24915 -0.58673 35389 ft 321 kts 330°
2026-04-23 03:21 52.26839 -0.60550 35603 ft 323 kts 330°
2026-04-23 03:21 52.28777 -0.62443 35797 ft 326 kts 330°
2026-04-23 03:22 52.30729 -0.64352 36022 ft 328 kts 330°
2026-04-23 03:22 52.32699 -0.66279 36203 ft 331 kts 330°
2026-04-23 03:22 52.34678 -0.68218 36401 ft 334 kts 330°
2026-04-23 03:22 52.36687 -0.70187 36456 ft 341 kts 330°
2026-04-23 03:23 52.40863 -0.74280 36458 ft 358 kts 330°
2026-04-23 03:23 52.45241 -0.78580 36459 ft 376 kts 330°
2026-04-23 03:24 52.49835 -0.83104 36458 ft 394 kts 330°
2026-04-23 03:24 52.54645 -0.87853 36459 ft 412 kts 330°
2026-04-23 03:25 52.59657 -0.92816 36462 ft 429 kts 330°
2026-04-23 03:25 52.64822 -0.97945 36418 ft 444 kts 329°
2026-04-23 03:26 52.70167 -1.03273 36475 ft 453 kts 329°
2026-04-23 03:26 52.75590 -1.08693 36691 ft 454 kts 329°
2026-04-23 03:27 52.78279 -1.11387 36989 ft 451 kts 329°
2026-04-23 03:27 52.80951 -1.14068 37176 ft 452 kts 329°
2026-04-23 03:27 52.83653 -1.16781 37305 ft 452 kts 329°
2026-04-23 03:27 52.86342 -1.19487 37477 ft 453 kts 329°
2026-04-23 03:28 52.89032 -1.22197 37629 ft 453 kts 329°
2026-04-23 03:28 52.91723 -1.24912 37783 ft 453 kts 329°
2026-04-23 03:28 52.94412 -1.27629 37941 ft 454 kts 329°
2026-04-23 03:28 52.97106 -1.30356 38042 ft 448 kts 329°
2026-04-23 03:29 52.99723 -1.33008 38035 ft 433 kts 329°
2026-04-23 03:29 53.02260 -1.35583 38032 ft 424 kts 329°
2026-04-23 03:29 53.07345 -1.40749 38034 ft 432 kts 329°
2026-04-23 03:30 53.12470 -1.45974 38040 ft 431 kts 329°
2026-04-23 03:30 53.17583 -1.51199 38041 ft 431 kts 329°
2026-04-23 03:31 53.22695 -1.56440 38043 ft 432 kts 329°
2026-04-23 03:31 53.27813 -1.61702 38046 ft 432 kts 329°
2026-04-23 03:32 53.32929 -1.66978 38042 ft 432 kts 329°
2026-04-23 03:32 53.38012 -1.72241 38044 ft 432 kts 329°
2026-04-23 03:33 53.43162 -1.77587 38040 ft 433 kts 328°
2026-04-23 03:33 53.48245 -1.82878 38041 ft 433 kts 328°
2026-04-23 03:34 53.53366 -1.88218 38035 ft 433 kts 328°
2026-04-23 03:34 53.58489 -1.93576 38038 ft 433 kts 328°
2026-04-23 03:35 53.63601 -1.98940 38038 ft 433 kts 328°
2026-04-23 03:35 53.68710 -2.04323 38042 ft 433 kts 328°
2026-04-23 03:36 53.73833 -2.09649 38037 ft 432 kts 332°
2026-04-23 03:36 53.79342 -2.13668 38043 ft 432 kts 338°
2026-04-23 03:37 53.84923 -2.17481 38042 ft 432 kts 338°
2026-04-23 03:37 53.90496 -2.21307 38038 ft 433 kts 338°
2026-04-23 03:38 53.96083 -2.25146 38039 ft 433 kts 338°
2026-04-23 03:38 54.01664 -2.28990 38042 ft 433 kts 338°
2026-04-23 03:39 54.07241 -2.32840 38043 ft 433 kts 338°
2026-04-23 03:39 54.12822 -2.36702 38041 ft 433 kts 338°
2026-04-23 03:40 54.18406 -2.40577 37935 ft 434 kts 338°
2026-04-23 03:40 54.21208 -2.42526 37534 ft 435 kts 338°
2026-04-23 03:40 54.23994 -2.44467 37317 ft 431 kts 338°
2026-04-23 03:41 54.26771 -2.46405 37070 ft 431 kts 338°
2026-04-23 03:41 54.29537 -2.48337 36809 ft 429 kts 338°
2026-04-23 03:41 54.32294 -2.50265 36543 ft 427 kts 338°
2026-04-23 03:41 54.35037 -2.52188 36290 ft 424 kts 338°
2026-04-23 03:42 54.37762 -2.54100 36034 ft 422 kts 338°
2026-04-23 03:42 54.40471 -2.56004 35786 ft 420 kts 338°
2026-04-23 03:42 54.43172 -2.57904 35530 ft 418 kts 338°
2026-04-23 03:42 54.45859 -2.59797 35147 ft 418 kts 338°
2026-04-23 03:43 54.48552 -2.61698 34564 ft 417 kts 338°
2026-04-23 03:43 54.51230 -2.63591 33887 ft 416 kts 338°
2026-04-23 03:43 54.53897 -2.65478 33210 ft 414 kts 338°
2026-04-23 03:43 54.56565 -2.67368 32593 ft 412 kts 338°
2026-04-23 03:44 54.59179 -2.69223 32327 ft 401 kts 338°
2026-04-23 03:44 54.61721 -2.71029 32066 ft 391 kts 337°
2026-04-23 03:44 54.64227 -2.72813 31810 ft 389 kts 337°
2026-04-23 03:44 54.66742 -2.74605 31558 ft 393 kts 337°
2026-04-23 03:45 54.69272 -2.76410 31308 ft 393 kts 337°
2026-04-23 03:45 54.71787 -2.78207 31062 ft 390 kts 337°
2026-04-23 03:45 54.74288 -2.79997 30811 ft 388 kts 337°
2026-04-23 03:45 54.76778 -2.81781 30563 ft 388 kts 336°
2026-04-23 03:46 54.79268 -2.83567 30278 ft 387 kts 336°
2026-04-23 03:46 54.81750 -2.85350 29987 ft 386 kts 336°
2026-04-23 03:46 54.84222 -2.87129 29707 ft 384 kts 336°
2026-04-23 03:46 54.86695 -2.88910 29439 ft 383 kts 336°
2026-04-23 03:47 54.89150 -2.90680 29158 ft 382 kts 336°
2026-04-23 03:47 54.91573 -2.92431 28886 ft 381 kts 336°
2026-04-23 03:47 54.93225 -2.93625 28703 ft 380 kts 336°
2026-04-23 03:47 54.95661 -2.95388 28419 ft 380 kts 336°
2026-04-23 03:48 54.99026 -2.97831 27689 ft 416 kts 336°
2026-04-23 03:48 55.01754 -2.99816 26817 ft 431 kts 336°
2026-04-23 03:48 55.04551 -3.01849 25678 ft 439 kts 336°
2026-04-23 03:48 55.07392 -3.03918 24497 ft 447 kts 337°
2026-04-23 03:49 55.10286 -3.06028 23204 ft 454 kts 337°
2026-04-23 03:49 55.13214 -3.08163 21889 ft 459 kts 336°
2026-04-23 03:49 55.15211 -3.09622 21119 ft 460 kts 336°
2026-04-23 03:49 55.18150 -3.11773 20308 ft 454 kts 336°
2026-04-23 03:50 55.21025 -3.13880 19889 ft 447 kts 336°
2026-04-23 03:50 55.23921 -3.16009 19640 ft 452 kts 336°
2026-04-23 03:50 55.26827 -3.18068 19393 ft 451 kts 340°
2026-04-23 03:50 55.29868 -3.19399 19167 ft 451 kts 350°
2026-04-23 03:51 55.32992 -3.19817 18938 ft 451 kts
2026-04-23 03:51 55.36096 -3.19442 18559 ft 443 kts
2026-04-23 03:51 55.39140 -3.18962 17869 ft 434 kts
2026-04-23 03:51 55.42128 -3.18499 16930 ft 431 kts
2026-04-23 03:52 55.45129 -3.18034 15735 ft 434 kts
2026-04-23 03:52 55.48111 -3.17570 14686 ft 435 kts
2026-04-23 03:52 55.51110 -3.17101 13723 ft 430 kts
2026-04-23 03:52 55.54064 -3.16638 12762 ft 424 kts
2026-04-23 03:53 55.56994 -3.16178 11816 ft 419 kts
2026-04-23 03:53 55.59876 -3.15724 10896 ft 414 kts
2026-04-23 03:53 55.62722 -3.15275 9958 ft 409 kts
2026-04-23 03:53 55.65466 -3.15054 9049 ft 403 kts 356°
2026-04-23 03:54 55.68189 -3.16067 8157 ft 398 kts 340°
2026-04-23 03:54 55.70597 -3.18392 7279 ft 393 kts 322°
2026-04-23 03:54 55.72479 -3.21840 6410 ft 388 kts 304°
2026-04-23 03:54 55.73683 -3.26049 5610 ft 378 kts 288°
2026-04-23 03:55 55.74410 -3.30482 4918 ft 369 kts 284°
2026-04-23 03:55 55.75078 -3.34760 4638 ft 350 kts 285°
2026-04-23 03:55 55.75986 -3.38639 4447 ft 332 kts 294°
2026-04-23 03:55 55.76961 -3.42273 4054 ft 322 kts 294°
2026-04-23 03:56 55.77920 -3.45828 3680 ft 313 kts 294°
2026-04-23 03:56 55.78845 -3.49271 3245 ft 306 kts 294°
2026-04-23 03:56 55.79731 -3.52570 3103 ft 281 kts 294°
2026-04-23 03:56 55.80511 -3.55468 3006 ft 239 kts 294°
2026-04-23 03:57 55.81175 -3.57942 2987 ft 207 kts 293°
2026-04-23 03:57 55.81756 -3.60112 2987 ft 183 kts 293°
2026-04-23 03:57 55.82271 -3.62044 2986 ft 163 kts 293°
2026-04-23 03:57 55.82736 -3.63792 2997 ft 161 kts 292°
2026-04-23 03:58 55.83384 -3.65793 2998 ft 205 kts 312°
2026-04-23 03:58 55.84634 -3.67031 2994 ft 212 kts 349°
2026-04-23 03:58 55.86080 -3.66763 2998 ft 212 kts 25°
2026-04-23 03:58 55.87134 -3.65122 2989 ft 193 kts 63°
2026-04-23 03:59 55.87488 -3.62887 3006 ft 185 kts 84°
2026-04-23 03:59 55.87688 -3.60665 2992 ft 182 kts 81°
2026-04-23 03:59 55.88033 -3.58498 2995 ft 183 kts 73°
2026-04-23 03:59 55.88543 -3.56422 2987 ft 183 kts 65°
2026-04-23 04:00 55.89166 -3.54430 2925 ft 185 kts 62°
2026-04-23 04:00 55.89830 -3.52535 2482 ft 172 kts 60°
2026-04-23 04:00 55.90438 -3.50799 1805 ft 165 kts 60°
2026-04-23 04:00 55.90982 -3.49139 1492 ft 142 kts 62°
2026-04-23 04:01 55.91448 -3.47739 1336 ft 123 kts 60°
2026-04-23 04:01 55.91943 -3.46268 1181 ft 159 kts 60°
2026-04-23 04:01 55.92532 -3.44536 950 ft 167 kts 59°
2026-04-23 04:01 55.93136 -3.42752 715 ft 169 kts 59°
2026-04-23 04:02 55.93741 -3.40967 474 ft 169 kts 59°
2026-04-23 04:02 55.94303 -3.39314 254 ft 143 kts 59°
2026-04-23 04:02 55.94778 -3.37916 117 ft 118 kts 59°
2026-04-23 04:02 55.95053 -3.37092 110 ft 63 kts 59°
2026-04-23 04:03 55.95241 -3.36519 111 ft 29 kts 70°
2026-04-23 04:03 55.95229 -3.36394 111 ft 12 kts 135°
2026-04-23 04:03 55.95156 -3.36315 110 ft 0 kts 149°
2026-04-23 04:05 55.95089 -3.36340 111 ft 23 kts 214°
2026-04-23 04:06 55.95008 -3.36440 111 ft 9 kts 230°
2026-04-23 04:06 55.94957 -3.36484 110 ft 8 kts 160°
2026-04-23 04:06 55.94926 -3.36445 112 ft 5 kts 146°
2026-04-23 04:06 55.94920 -3.36438 110 ft 0 kts 146°